Total_Precipitation_Accumulation
0.00 0.00 0.00 0.00 0.00 0.00 0.00 0.00 0.00 0.00 0.00 0.00 0.00 0.00 0.00 0.03 0.12 0.20 0.55 1.08 1.40 0.40 0.44 0.39 0.08 0.01 0.02 0.01 0.00 0.00 0.00 0.00 0.00 0.00 0.00 0.00 0.00 0.00 0.00 0.00 0.00 0.00 0.01 0.00 0.00 0.00 0.00 0.00 0.00
0.00 0.00 0.00 0.00 0.00 0.00 0.00 0.00 0.00 0.00 0.00 0.00 0.00 0.00 0.00 0.06 0.15 1.00 0.96 1.85 2.23 1.23 0.83 0.82 0.56 0.09 0.03 0.02 0.01 0.00 0.00 0.00 0.00 0.00 0.00 0.00 0.00 0.00 0.00 0.00 0.00 0.00 0.01 0.00 0.00 0.00 0.00 0.00 0.00
0.00 0.00 0.00 0.00 0.00 0.00 0.00 0.00 0.00 0.00 0.00 0.00 0.00 0.00 0.00 0.13 0.60 0.40 0.41 0.85 1.21 0.99 1.09 0.98 0.96 0.82 0.31 0.15 0.03 0.01 0.00 0.00 0.00 0.00 0.00 0.00 0.00 0.01 0.00 0.00 0.00 0.00 0.01 0.00 0.00 0.00 0.00 0.00 0.00
0.00 0.00 0.00 0.00 0.00 0.00 0.00 0.00 0.00 0.00 0.00 0.01 0.02 0.01 0.03 0.08 0.17 0.23 0.05 0.12 0.75 0.83 0.98 1.16 0.93 0.66 0.54 0.52 0.18 0.04 0.01 0.00 0.00 0.00 0.00 0.01 0.01 0.00 0.00 0.00 0.00 0.00 0.01 0.00 0.00 0.00 0.00 0.00 0.00
0.00 0.00 0.00 0.00 0.00 0.00 0.00 0.00 0.00 0.00 0.30 0.29 0.04 0.06 0.11 0.18 0.10 0.07 0.15 0.20 0.85 0.84 1.55 2.57 2.17 1.62 0.84 0.72 0.42 0.14 0.04 0.01 0.00 0.00 0.00 0.01 0.03 0.00 0.00 0.00 0.01 0.01 0.01 0.00 0.00 0.00 0.00 0.00 0.00
0.00 0.00 0.00 0.00 0.00 0.00 0.00 0.00 0.00 0.00 0.54 0.47 0.34 0.26 0.15 0.15 0.05 0.02 0.08 0.48 1.05 1.03 1.67 3.80 4.36 3.82 3.17 2.01 1.43 0.53 0.15 0.08 0.02 0.00 0.00 0.00 0.00 0.00 0.00 0.00 0.00 0.00 0.00 0.00 0.00 0.00 0.00 0.00 0.00
0.00 0.00 0.00 0.00 0.00 0.00 0.01 0.01 0.01 0.02 0.53 1.14 0.42 0.31 0.02 0.06 0.08 0.05 0.18 0.60 1.60 2.54 3.23 3.37 6.07 3.66 2.98 3.64 3.08 2.37 0.68 0.24 0.15 0.03 0.02 0.00 0.00 0.00 0.01 0.00 0.00 0.00 0.00 0.00 0.00 0.00 0.00 0.00 0.00
0.00 0.00 0.00 0.00 0.00 0.00 0.00 0.00 0.00 0.01 0.08 0.21 0.24 0.43 0.44 0.16 0.23 0.33 0.39 0.71 1.93 3.39 6.41 5.14 5.02 3.70 2.48 2.89 3.61 2.43 1.89 1.09 0.30 0.13 0.06 0.01 0.00 0.00 0.00 0.00 0.00 0.00 0.00 0.00 0.00 0.00 0.00 0.00 0.00
0.00 0.00 0.00 0.00 0.00 0.00 0.00 0.00 0.00 0.00 0.01 0.09 0.18 0.20 0.28 0.36 0.18 0.17 0.43 0.54 0.66 0.75 1.44 2.81 4.89 4.13 2.63 2.02 3.03 2.37 2.31 1.58 0.57 0.28 0.14 0.02 0.00 0.00 0.00 0.00 0.00 0.00 0.00 0.00 0.00 0.00 0.00 0.00 0.00
0.00 0.00 0.00 0.00 0.00 0.00 0.00 0.00 0.00 0.00 0.01 0.11 0.34 0.26 0.47 0.39 0.15 0.11 0.13 0.23 0.22 0.32 0.33 0.81 3.19 5.39 3.29 2.40 1.79 1.80 1.88 2.78 0.77 0.24 0.16 0.02 0.01 0.00 0.01 0.00 0.00 0.00 0.00 0.00 0.00 0.00 0.00 0.00 0.00
0.00 0.00 0.00 0.00 0.00 0.00 0.00 0.01 0.00 0.00 0.03 0.28 0.10 0.08 0.18 0.16 0.08 0.08 0.08 0.10 0.12 0.13 0.19 0.18 1.60 3.39 2.99 2.59 2.22 1.59 1.24 2.11 1.46 0.35 0.17 0.05 0.03 0.04 0.01 0.00 0.01 0.00 0.00 0.00 0.00 0.00 0.00 0.00 0.00
0.00 0.00 0.00 0.00 0.00 0.00 0.00 0.02 0.00 0.01 0.03 0.01 0.06 0.06 0.10 0.12 0.07 0.06 0.08 0.10 0.14 0.16 0.18 0.21 0.25 1.52 1.72 1.70 2.01 1.54 0.90 0.86 1.38 0.42 0.30 0.10 0.04 0.06 0.02 0.00 0.00 0.00 0.00 0.00 0.00 0.00 0.00 0.00 0.00
0.00 0.00 0.00 0.00 0.00 0.00 0.00 0.00 0.00 0.02 0.07 0.00 0.00 0.03 0.08 0.04 0.06 0.09 0.16 0.19 0.26 0.20 0.14 0.25 0.30 0.59 1.31 1.53 1.61 1.17 0.59 0.52 0.60 0.40 0.31 0.12 0.04 0.05 0.03 0.00 0.00 0.00 0.00 0.00 0.00 0.00 0.00 0.00 0.00
0.00 0.00 0.00 0.00 0.00 0.00 0.00 0.00 0.00 0.16 0.07 0.03 0.00 0.01 0.07 0.04 0.02 0.06 0.14 0.16 0.21 0.27 0.15 0.12 0.23 0.30 0.65 1.31 0.97 0.98 0.56 0.30 0.54 0.54 0.28 0.22 0.09 0.05 0.02 0.01 0.00 0.00 0.00 0.00 0.00 0.00 0.00 0.00 0.00
0.00 0.00 0.00 0.00 0.00 0.00 0.00 0.00 0.10 0.05 0.04 0.05 0.00 0.00 0.01 0.02 0.03 0.10 0.15 0.08 0.11 0.36 0.21 0.18 0.15 0.21 0.62 1.04 0.90 0.80 0.66 0.37 0.32 0.57 0.47 0.40 0.16 0.04 0.01 0.03 0.00 0.00 0.00 0.00 0.00 0.00 0.00 0.00 0.00
0.00 0.00 0.01 0.04 0.00 0.00 0.00 0.01 0.21 0.03 0.03 0.01 0.00 0.00 0.01 0.03 0.06 0.07 0.10 0.08 0.07 0.31 0.18 0.14 0.15 0.23 0.40 0.75 0.83 0.88 0.70 0.45 0.33 0.38 0.51 0.50 0.27 0.06 0.07 0.05 0.01 0.00 0.00 0.00 0.00 0.00 0.00 0.00 0.00
0.00 0.00 0.00 0.00 0.00 0.00 0.00 0.00 0.05 0.05 0.01 0.01 0.00 0.00 0.00 0.04 0.13 0.14 0.11 0.08 0.06 0.12 0.13 0.24 0.20 0.17 0.32 0.52 0.56 0.80 0.59 0.44 0.35 0.43 0.51 0.37 0.28 0.09 0.07 0.04 0.02 0.01 0.00 0.00 0.00 0.00 0.00 0.00 0.00
0.00 0.00 0.00 0.00 0.00 0.00 0.00 0.00 0.01 0.02 0.00 0.00 0.00 0.00 0.00 0.00 0.06 0.03 0.03 0.02 0.07 0.11 0.06 0.25 0.25 0.20 0.18 0.36 0.39 0.78 0.62 0.50 0.49 0.41 0.49 0.42 0.26 0.28 0.23 0.12 0.03 0.02 0.00 0.00 0.00 0.00 0.00 0.00 0.00
0.00 0.00 0.00 0.00 0.00 0.00 0.00 0.00 0.00 0.00 0.00 0.00 0.00 0.00 0.00 0.00 0.00 0.01 0.01 0.02 0.04 0.05 0.04 0.11 0.24 0.32 0.19 0.11 0.32 0.77 0.72 0.59 0.57 0.49 0.46 0.40 0.31 0.17 0.21 0.08 0.05 0.00 0.00 0.00 0.00 0.00 0.01 0.01 0.01
0.00 0.00 0.00 0.00 0.00 0.00 0.00 0.00 0.00 0.00 0.00 0.00 0.00 0.00 0.00 0.00 0.00 0.00 0.01 0.01 0.01 0.01 0.02 0.01 0.10 0.28 0.12 0.14 0.22 0.49 0.54 0.53 0.41 0.46 0.44 0.42 0.36 0.26 0.11 0.03 0.07 0.00 0.00 0.00 0.01 0.01 0.02 0.02 0.02
0.00 0.00 0.00 0.00 0.00 0.00 0.00 0.00 0.00 0.00 0.01 0.00 0.01 0.00 0.00 0.00 0.00 0.00 0.00 0.01 0.01 0.01 0.00 0.00 0.01 0.16 0.14 0.05 0.10 0.27 0.47 0.46 0.43 0.55 0.49 0.41 0.35 0.35 0.26 0.06 0.03 0.02 0.01 0.01 0.01 0.01 0.01 0.02 0.02
0.00 0.00 0.00 0.00 0.00 0.00 0.00 0.00 0.00 0.00 0.01 0.00 0.00 0.01 0.00 0.00 0.00 0.00 0.00 0.00 0.01 0.00 0.00 0.00 0.00 0.03 0.05 0.03 0.03 0.10 0.28 0.29 0.25 0.27 0.26 0.25 0.19 0.14 0.11 0.05 0.03 0.02 0.02 0.01 0.03 0.03 0.03 0.02 0.02
0.00 0.00 0.00 0.00 0.00 0.00 0.00 0.00 0.00 0.00 0.00 0.00 0.00 0.00 0.00 0.00 0.00 0.00 0.00 0.00 0.00 0.00 0.00 0.00 0.00 0.00 0.01 0.01 0.05 0.02 0.07 0.11 0.18 0.15 0.15 0.15 0.15 0.14 0.11 0.06 0.05 0.04 0.02 0.06 0.06 0.04 0.04 0.05 0.04
0.00 0.00 0.00 0.00 0.00 0.00 0.00 0.00 0.00 0.00 0.00 0.00 0.00 0.00 0.00 0.01 0.00 0.00 0.00 0.00 0.00 0.00 0.00 0.00 0.00 0.00 0.01 0.01 0.00 0.03 0.01 0.01 0.04 0.06 0.05 0.06 0.08 0.09 0.05 0.03 0.02 0.02 0.02 0.06 0.08 0.14 0.11 0.10 0.08
0.00 0.00 0.00 0.04 0.01 0.00 0.00 0.01 0.00 0.00 0.00 0.00 0.00 0.00 0.00 0.00 0.01 0.01 0.00 0.00 0.00 0.00 0.00 0.00 0.00 0.00 0.00 0.00 0.00 0.00 0.01 0.01 0.00 0.00 0.03 0.02 0.01 0.02 0.03 0.02 0.01 0.02 0.06 0.07 0.09 0.13 0.15 0.10 0.08
0.00 0.00 0.01 0.04 0.04 0.04 0.06 0.01 0.00 0.00 0.00 0.00 0.00 0.00 0.00 0.00 0.00 0.01 0.01 0.01 0.00 0.00 0.00 0.00 0.00 0.00 0.00 0.00 0.00 0.01 0.02 0.01 0.04 0.04 0.10 0.03 0.02 0.01 0.01 0.01 0.01 0.02 0.04 0.06 0.10 0.15 0.16 0.21 0.29
0.00 0.00 0.00 0.00 0.02 0.03 0.01 0.00 0.00 0.00 0.00 0.00 0.00 0.00 0.00 0.00 0.00 0.00 0.01 0.02 0.04 0.04 0.03 0.01 0.00 0.00 0.00 0.00 0.00 0.01 0.07 0.04 0.07 0.25 0.13 0.13 0.03 0.04 0.02 0.06 0.06 0.03 0.03 0.04 0.11 0.19 0.30 0.36 0.33
0.00 0.00 0.00 0.00 0.00 0.01 0.00 0.01 0.01 0.00 0.00 0.00 0.00 0.00 0.00 0.00 0.00 0.00 0.01 0.01 0.05 0.09 0.13 0.17 0.08 0.02 0.00 0.00 0.00 0.00 0.08 0.09 0.11 0.20 0.06 0.10 0.14 0.17 0.26 0.22 0.13 0.09 0.08 0.17 0.38 0.49 0.47 0.38 0.30
0.00 0.00 0.00 0.00 0.00 0.00 0.00 0.00 0.00 0.00 0.00 0.00 0.00 0.00 0.00 0.00 0.00 0.00 0.00 0.00 0.03 0.11 0.11 0.18 0.26 0.18 0.07 0.02 0.00 0.01 0.12 0.12 0.18 0.14 0.18 0.17 0.38 0.45 0.41 0.37 0.36 0.53 0.69 0.67 0.58 0.50 0.41 0.34 0.29
0.00 0.00 0.00 0.00 0.00 0.00 0.00 0.00 0.00 0.00 0.00 0.00 0.00 0.00 0.00 0.00 0.00 0.00 0.00 0.00 0.01 0.05 0.08 0.05 0.20 0.23 0.28 0.17 0.08 0.06 0.19 0.22 0.26 0.41 0.39 0.47 0.58 0.60 0.69 0.78 0.66 0.59 0.68 0.84 0.89 0.79 0.70 0.62 0.55